Location: Unspecified
(47.5840°N, 122.3000°W)
Time: 14:43:23
(UTC+00:00)

IRIDIUM 114 - Pass Details

Date: 20 March 2026
Orbit: 776 x 779 km, 86.4° (Epoch: 18 April)

Event Time Altitude Azimuth Distance (km) Brightness Sun altitude
Exits shadow 04:48:10 67° 151° (SSE) 846 4.2 -24.6°
Maximum altitude 04:48:48 78° 91° (E) 802 4.2 -24.7°
Drops below altitude 10° 04:54:03 10° 6° (N) 2,342 7.1 -25.4°
Sets 04:56:24 0° 5° (N) 3,274 7.9 -25.8°
